Weather History for Ellsworth AFB, SD

Change the Weather History Date:

Monday, February 4, 2013

  Actual Average Record
Temperature  
Mean Temperature 36 °F -  
Max Temperature 47 °F 37 °F 71 °F (2005)
Min Temperature 26 °F 15 °F -2 °F (2014)
Degree Days  
Heating Degree Days 28    
Moisture  
Dew Point 23 °F    
Average Humidity 59    
Maximum Humidity 78    
Minimum Humidity 37    
Precipitation  
Precipitation 0.00 in - - ()
Sea Level Pressure  
Sea Level Pressure 29.87 in    
Wind  
Wind Speed 7 mph (WNW)    
Max Wind Speed 23 mph    
Max Gust Speed 31 mph    
Visibility 10 miles    
Events      
Averages and records for this station are not official NWS values.
T = Trace of Precipitation, MM = Missing Value Source: NWS Daily Summary

Daily Weather History Graph

Daily Weather History Graph

Search for Another Location

Airport:

Trip Planner

Search our weather history database for the weather conditions in past years. The results will help you decide how hot, cold, wet, or windy it might be!

Date:

Astronomy

Feb. 04, 2013 Rise Set
Actual Time 7:06 AM MST 5:07 PM MST
Civil Twilight 6:35 AM MST 5:37 PM MST
Nautical Twilight 6:01 AM MST 6:12 PM MST
Astronomical Twilight 5:27 AM MST 6:45 PM MST
Moon 1:47 AM MST (2/4) 11:29 AM MST (2/4)
Length of Visible Light 11h 01m
Length of Day
10h 00m
Last Quarter, 36% of the Moon is Illuminated
Feb 4
Last Quarter
Feb 10
New
Feb 17
First Quarter
Feb 25
Full
Mar 4
Last Quarter

Hourly Weather History & Observations

Time (MST) Temp. Windchill Dew Point Humidity Pressure Visibility Wind Dir Wind Speed Gust Speed Precip Events Conditions
12:55 AM 34.2 °F 27.5 °F 23.2 °F 64% 29.93 in 10.0 mi NNW 8.1 mph - N/A   Partly Cloudy
1:55 AM 28.9 °F 22.8 °F 21.4 °F 73% 29.94 in 10.0 mi NW 5.8 mph - N/A   Clear
3:55 AM 26.2 °F - 20.3 °F 78% 29.93 in 10.0 mi Calm Calm - N/A   Clear
4:55 AM 27.5 °F - 20.7 °F 75% 29.93 in 10.0 mi Calm Calm - N/A   Clear
5:55 AM 28.0 °F 24.2 °F 19.4 °F 70% 29.93 in 10.0 mi SW 3.5 mph - N/A   Clear
6:55 AM 29.1 °F 24.1 °F 19.9 °F 69% 29.91 in 10.0 mi South 4.6 mph - N/A   Overcast
7:55 AM 29.7 °F 22.0 °F 23.2 °F 77% 29.91 in 10.0 mi South 8.1 mph - N/A   Overcast
8:55 AM 31.3 °F 25.6 °F 23.9 °F 74% 29.89 in 10.0 mi SSW 5.8 mph - N/A   Mostly Cloudy
9:55 AM 37.6 °F 34.0 °F 24.3 °F 59% 29.87 in 10.0 mi SW 4.6 mph - N/A   Partly Cloudy
10:55 AM 43.0 °F - 22.6 °F 45% 29.85 in 10.0 mi Calm Calm - N/A   Mostly Cloudy
11:55 AM 45.9 °F - 22.6 °F 40% 29.82 in 10.0 mi Calm Calm - N/A   Overcast
12:55 PM 45.5 °F 38.9 °F 24.3 °F 43% 29.81 in 10.0 mi North 15.0 mph - N/A   Overcast
1:55 PM 47.1 °F - 21.9 °F 37% 29.81 in 10.0 mi NNW 20.7 mph 27.6 mph N/A   Overcast
2:55 PM 46.9 °F - 23.5 °F 40% 29.81 in 10.0 mi NNW 23.0 mph 31.1 mph N/A   Overcast
3:55 PM 45.1 °F 37.6 °F 24.3 °F 44% 29.83 in 10.0 mi NNW 18.4 mph - N/A   Overcast
4:55 PM 44.1 °F 36.5 °F 25.2 °F 47% 29.83 in 10.0 mi NNW 17.3 mph - N/A   Overcast
5:55 PM 39.7 °F 33.7 °F 25.7 °F 57% 29.85 in 10.0 mi NW 9.2 mph - N/A   Overcast
6:55 PM 39.0 °F 34.8 °F 25.2 °F 58% 29.86 in 10.0 mi NW 5.8 mph - N/A   Overcast
7:55 PM 36.1 °F 30.6 °F 23.7 °F 61% 29.87 in 10.0 mi WSW 6.9 mph - N/A   Scattered Clouds
8:55 PM 33.6 °F 26.8 °F 23.5 °F 67% 29.87 in 10.0 mi WSW 8.1 mph - N/A   Mostly Cloudy
9:55 PM 36.1 °F 29.9 °F 23.4 °F 60% 29.84 in 10.0 mi WSW 8.1 mph - N/A   Overcast
10:55 PM 35.6 °F 30.7 °F 24.4 °F 64% 29.84 in 10.0 mi NW 5.8 mph - N/A   Overcast
11:55 PM 42.4 °F 33.8 °F 25.7 °F 52% 29.85 in 10.0 mi NNW 19.6 mph 26.5 mph N/A   Overcast